Regional Weather Roundup
Issued by NWS

Home | Current Version | Previous Version | Text Only | Print | Product List | Glossary Off
Versions: 1 2 3 4 5 6 7 8 9 10 11 12 13 14 15 16 17 18 19 20 21 22 23 24 25 26 27 28 29 30 31 32 33 34 35 36 37 38 39 40 41 42 43 44 45 46 47 48 49 50

000
ASUS45 KBOI 260510
RWRID
WEATHER ROUNDUP FOR IDAHO
NATIONAL WEATHER SERVICE BOISE ID
1000 PM MST TUE NOV 25 2014

NOTE: "FAIR" INDICATES FEW OR NO CLOUDS BELOW 12000 FEET
WITH NO SIGNIFICANT WEATHER AND/OR OBSTRUCTIONS TO VISIBILITY

IDZ012-014-260600-
SOUTHWEST IDAHO


CITY           SKY/WX    TMP DP  RH WIND       PRES   REMARKS
BOISE          CLOUDY    51  41  68 NW6       30.28R
CALDWELL       NOT AVBL
MOUNTAIN HOME  PTCLDY    47  44  90 NW8       30.28R
$$

IDZ016-017-260600-
SOUTHCENTRAL IDAHO


CITY           SKY/WX    TMP DP  RH WIND       PRES   REMARKS
BURLEY         CLEAR     49  35  58 W23G31    30.24S
JEROME         CLOUDY    46  37  71 SW10      30.28R
TWIN FALLS     CLOUDY    50  35  56 SW20      30.28R
$$

IDZ019>023-260600-
SOUTHEAST IDAHO


CITY           SKY/WX    TMP DP  RH WIND       PRES   REMARKS
IDAHO FALLS    CLOUDY    42  38  85 SW20      30.10S
POCATELLO      CLOUDY    46  39  76 SW30G38   30.18S
REXBURG        CLOUDY    39  36  89 SW12      30.10S WCI  32
$$

IDZ006-010-011-018-031-032-260600-
CENTRAL IDAHO MOUNTAINS


CITY           SKY/WX    TMP DP  RH WIND       PRES   REMARKS
MCCALL         LGT RAIN  34  34 100 CALM      30.22S FOG
HAILEY         PTCLDY    43  34  70 CALM      30.18R
STANLEY          N/A     36  32  85 CALM      30.24R
SALMON         CLOUDY    34  32  93 CALM      30.13R
CHALLIS        CLOUDY    44  34  67 S5        30.13R
$$

IDZ002-004-006-007-026-260600-
NORTHERN IDAHO


CITY           SKY/WX    TMP DP  RH WIND       PRES   REMARKS
LEWISTON       CLOUDY    43  41  93 E6        30.17F
LOWELL           N/A     36  35  96 NW3       30.22R
COEUR D`ALENE  CLOUDY    34  30  86 E3        30.16F
MULLAN PASS    LGT SNOW  27  24  89 S7        30.06S VSB 1   WCI  19
$$



USA.gov is the U.S. government's official web portal to all federal, state and local government web resources and services.